SWR560 LSZH-LFMN

Flight info

Callsign SWR560
Flight time 1h 8m
Altitude 34000
Route VEBIT4W VEBIT T53 GERSA DCT SOSON DCT ODINA/N0457F350 DCT ENOBA Z185 ASBOP/N0386F190 Z185 BORDI BORDI8R
Aircraft A21N/M-SDE2E3FGHIRWXY/LB1

Departure

Time 2026-05-08 06:57
Airport Zürich Airport (LSZH)

Arrival

Time 2026-05-08 08:05
Airport Nice-Côte d'Azur Airport (LFMN)
Time Latitude Longitude Altitude Speed Heading
2026-05-08 06:34 47.45438 8.55692 1407 ft 0 kts 186°
2026-05-08 06:42 47.45446 8.55693 1414 ft 4 kts 188°
2026-05-08 06:42 47.45472 8.55700 1407 ft 4 kts 180°
2026-05-08 06:43 47.45493 8.55694 1411 ft 4 kts 152°
2026-05-08 06:43 47.45511 8.55669 1412 ft 4 kts 111°
2026-05-08 06:43 47.45516 8.55646 1414 ft 0 kts 96°
2026-05-08 06:46 47.45515 8.55662 1407 ft 6 kts 96°
2026-05-08 06:46 47.45510 8.55731 1412 ft 8 kts 96°
2026-05-08 06:47 47.45512 8.55805 1414 ft 7 kts 69°
2026-05-08 06:47 47.45553 8.55840 1411 ft 7 kts 12°
2026-05-08 06:47 47.45605 8.55848 1412 ft 8 kts 357°
2026-05-08 06:47 47.45644 8.55775 1407 ft 12 kts 279°
2026-05-08 06:48 47.45654 8.55642 1404 ft 14 kts 276°
2026-05-08 06:48 47.45664 8.55489 1405 ft 16 kts 276°
2026-05-08 06:48 47.45676 8.55323 1409 ft 17 kts 276°
2026-05-08 06:48 47.45688 8.55182 1401 ft 9 kts 286°
2026-05-08 06:49 47.45704 8.55160 1400 ft 0 kts 331°
2026-05-08 06:49 47.45728 8.55142 1399 ft 10 kts 334°
2026-05-08 06:49 47.45812 8.55084 1403 ft 14 kts 335°
2026-05-08 06:49 47.45898 8.55025 1403 ft 13 kts 335°
2026-05-08 06:50 47.45991 8.54961 1397 ft 16 kts 335°
2026-05-08 06:50 47.46093 8.54890 1384 ft 17 kts 335°
2026-05-08 06:50 47.46197 8.54819 1385 ft 16 kts 334°
2026-05-08 06:50 47.46302 8.54747 1384 ft 17 kts 335°
2026-05-08 06:51 47.46411 8.54671 1384 ft 17 kts 335°
2026-05-08 06:51 47.46510 8.54604 1384 ft 15 kts 335°
2026-05-08 06:51 47.46598 8.54543 1383 ft 14 kts 334°
2026-05-08 06:51 47.46689 8.54480 1383 ft 15 kts 335°
2026-05-08 06:52 47.46790 8.54420 1381 ft 16 kts 341°
2026-05-08 06:52 47.46893 8.54354 1383 ft 16 kts 334°
2026-05-08 06:52 47.46985 8.54290 1384 ft 14 kts 335°
2026-05-08 06:52 47.47074 8.54230 1381 ft 15 kts 335°
2026-05-08 06:53 47.47134 8.54189 1383 ft 14 kts 335°
2026-05-08 06:53 47.47238 8.54117 1385 ft 17 kts 335°
2026-05-08 06:53 47.47344 8.54044 1387 ft 16 kts 335°
2026-05-08 06:53 47.47433 8.53983 1400 ft 13 kts 335°
2026-05-08 06:54 47.47507 8.53933 1401 ft 10 kts 335°
2026-05-08 06:54 47.47563 8.53893 1403 ft 8 kts 329°
2026-05-08 06:54 47.47600 8.53833 1403 ft 8 kts 297°
2026-05-08 06:54 47.47607 8.53787 1402 ft 0 kts 274°
2026-05-08 06:55 47.47606 8.53776 1397 ft 3 kts 264°
2026-05-08 06:55 47.47603 8.53747 1400 ft 5 kts 258°
2026-05-08 06:55 47.47589 8.53695 1404 ft 5 kts 246°
2026-05-08 06:56 47.47559 8.53634 1406 ft 8 kts 213°
2026-05-08 06:56 47.47491 8.53650 1399 ft 19 kts 157°
2026-05-08 06:56 47.47136 8.53893 1383 ft 92 kts 155°
2026-05-08 06:56 47.46371 8.54423 1383 ft 147 kts 155°
2026-05-08 06:57 47.45329 8.55132 1575 ft 172 kts 156°
2026-05-08 06:57 47.44259 8.55848 2258 ft 167 kts 154°
2026-05-08 06:57 47.43195 8.56584 2781 ft 174 kts 155°
2026-05-08 06:57 47.42038 8.57335 3105 ft 188 kts 152°
2026-05-08 06:58 47.41096 8.58767 3284 ft 207 kts 112°
2026-05-08 06:58 47.41036 8.60803 3509 ft 219 kts 74°
2026-05-08 06:58 47.41831 8.62740 4078 ft 226 kts 41°
2026-05-08 06:58 47.43221 8.63747 4868 ft 226 kts
2026-05-08 06:59 47.44755 8.63361 5584 ft 229 kts 329°
2026-05-08 06:59 47.45822 8.61638 6272 ft 232 kts 290°
2026-05-08 06:59 47.46011 8.59316 6784 ft 245 kts 262°
2026-05-08 06:59 47.45484 8.56817 7125 ft 267 kts 247°
2026-05-08 07:00 47.44741 8.54223 7730 ft 278 kts 246°
2026-05-08 07:00 47.43972 8.51606 8502 ft 283 kts 246°
2026-05-08 07:00 47.43212 8.49042 9270 ft 286 kts 246°
2026-05-08 07:00 47.42414 8.46337 10060 ft 289 kts 246°
2026-05-08 07:01 47.41597 8.43555 10533 ft 305 kts 246°
2026-05-08 07:01 47.40821 8.40919 10726 ft 326 kts 246°
2026-05-08 07:01 47.39887 8.37746 10903 ft 349 kts 246°
2026-05-08 07:01 47.38895 8.34378 11197 ft 365 kts 246°
2026-05-08 07:02 47.37790 8.30961 11833 ft 371 kts 243°
2026-05-08 07:02 47.36741 8.27968 12458 ft 374 kts 242°
2026-05-08 07:02 47.35817 8.25425 12988 ft 376 kts 242°
2026-05-08 07:02 47.34563 8.22016 13668 ft 379 kts 242°
2026-05-08 07:03 47.33312 8.18620 14305 ft 383 kts 242°
2026-05-08 07:03 47.32045 8.15148 14922 ft 386 kts 242°
2026-05-08 07:03 47.30758 8.11645 15517 ft 390 kts 239°
2026-05-08 07:03 47.28957 8.08662 16061 ft 395 kts 216°
2026-05-08 07:04 47.26456 8.06977 16602 ft 400 kts 193°
2026-05-08 07:04 47.23670 8.06903 17149 ft 405 kts 169°
2026-05-08 07:04 47.21060 8.08469 17678 ft 410 kts 146°
2026-05-08 07:04 47.19046 8.11442 18188 ft 415 kts 123°
2026-05-08 07:05 47.18132 8.14317 18565 ft 418 kts 106°
2026-05-08 07:05 47.17858 8.18570 19043 ft 422 kts 83°
2026-05-08 07:05 47.18494 8.22791 19531 ft 425 kts 75°
2026-05-08 07:05 47.19238 8.26964 19988 ft 429 kts 75°
2026-05-08 07:06 47.20040 8.31227 20461 ft 432 kts 74°
2026-05-08 07:06 47.20758 8.35512 20927 ft 435 kts 79°
2026-05-08 07:06 47.21075 8.39832 21366 ft 438 kts 89°
2026-05-08 07:06 47.20836 8.44302 21796 ft 440 kts 104°
2026-05-08 07:07 47.20622 8.45397 21901 ft 440 kts 110°
2026-05-08 07:07 47.20093 8.47208 22081 ft 441 kts 120°
2026-05-08 07:07 47.18194 8.50709 22479 ft 441 kts 141°
2026-05-08 07:07 47.18181 8.50726 22484 ft 441 kts 141°
2026-05-08 07:08 47.15520 8.52979 22880 ft 440 kts 163°
2026-05-08 07:08 47.12517 8.53632 23270 ft 439 kts 184°
2026-05-08 07:08 47.09661 8.52890 23648 ft 440 kts 195°
2026-05-08 07:08 47.06639 8.52104 24051 ft 444 kts 186°
2026-05-08 07:09 47.03562 8.52120 24442 ft 448 kts 176°
2026-05-08 07:09 47.00613 8.52664 24817 ft 451 kts 172°
2026-05-08 07:09 46.97782 8.53419 25174 ft 453 kts 171°
2026-05-08 07:09 46.94679 8.54280 25554 ft 455 kts 171°
2026-05-08 07:10 46.91550 8.55038 25928 ft 456 kts 173°
2026-05-08 07:10 46.88435 8.55636 26296 ft 458 kts 175°
2026-05-08 07:10 46.85265 8.56112 26668 ft 459 kts 176°
2026-05-08 07:10 46.82713 8.56436 26967 ft 460 kts 177°
2026-05-08 07:11 46.79523 8.56818 27272 ft 462 kts 177°
2026-05-08 07:11 46.76298 8.57207 27649 ft 462 kts 177°
2026-05-08 07:11 46.73103 8.57613 28118 ft 460 kts 176°
2026-05-08 07:11 46.69923 8.58046 28575 ft 458 kts 176°
2026-05-08 07:12 46.66756 8.58503 29012 ft 457 kts 176°
2026-05-08 07:12 46.63773 8.58947 29431 ft 455 kts 176°
2026-05-08 07:12 46.60634 8.59413 29860 ft 453 kts 176°
2026-05-08 07:12 46.57505 8.59873 30279 ft 451 kts 176°
2026-05-08 07:13 46.54382 8.60325 30704 ft 450 kts 176°
2026-05-08 07:13 46.51270 8.60766 31130 ft 448 kts 176°
2026-05-08 07:13 46.48172 8.61201 31544 ft 446 kts 177°
2026-05-08 07:13 46.45089 8.61635 31958 ft 444 kts 176°
2026-05-08 07:14 46.42008 8.62064 32347 ft 443 kts 177°
2026-05-08 07:14 46.38986 8.62484 32761 ft 441 kts 176°
2026-05-08 07:14 46.35933 8.62912 33169 ft 440 kts 176°
2026-05-08 07:14 46.32878 8.63346 33551 ft 438 kts 176°
2026-05-08 07:15 46.29991 8.63757 33922 ft 437 kts 177°
2026-05-08 07:15 46.26818 8.64207 34060 ft 436 kts 176°
2026-05-08 07:15 46.20802 8.65050 34081 ft 433 kts 177°
2026-05-08 07:16 46.14810 8.65882 34085 ft 432 kts 177°
2026-05-08 07:16 46.08879 8.66168 34083 ft 429 kts 188°
2026-05-08 07:17 46.03026 8.64968 34080 ft 428 kts 190°
2026-05-08 07:17 45.97169 8.63767 34083 ft 428 kts 190°
2026-05-08 07:18 45.91276 8.62569 34086 ft 427 kts 190°
2026-05-08 07:18 45.85437 8.61383 34091 ft 427 kts 190°
2026-05-08 07:19 45.79553 8.60196 34089 ft 427 kts 190°
2026-05-08 07:19 45.73962 8.59061 34086 ft 427 kts 190°
2026-05-08 07:20 45.68373 8.57924 34088 ft 427 kts 190°
2026-05-08 07:20 45.62488 8.56740 34081 ft 427 kts 190°
2026-05-08 07:21 45.56642 8.55567 34085 ft 427 kts 190°
2026-05-08 07:21 45.50839 8.54397 34084 ft 427 kts 189°
2026-05-08 07:22 45.44958 8.53218 34087 ft 427 kts 190°
2026-05-08 07:22 45.39454 8.52109 34082 ft 427 kts 190°
2026-05-08 07:23 45.33601 8.50940 34082 ft 427 kts 189°
2026-05-08 07:23 45.27714 8.49764 34085 ft 427 kts 189°
2026-05-08 07:24 45.21969 8.48616 34078 ft 426 kts 189°
2026-05-08 07:24 45.16087 8.47455 34075 ft 427 kts 189°
2026-05-08 07:25 45.10383 8.46337 34071 ft 426 kts 189°
2026-05-08 07:26 45.01584 8.44592 34062 ft 426 kts 189°
2026-05-08 07:26 44.95700 8.43427 34056 ft 427 kts 189°
2026-05-08 07:27 44.89902 8.42290 34055 ft 427 kts 189°
2026-05-08 07:27 44.84068 8.41148 34053 ft 426 kts 189°
2026-05-08 07:28 44.78156 8.39992 34042 ft 426 kts 189°
2026-05-08 07:28 44.72323 8.38847 34027 ft 427 kts 189°
2026-05-08 07:29 44.66434 8.37692 34030 ft 427 kts 189°
2026-05-08 07:29 44.60645 8.36567 34025 ft 427 kts 189°
2026-05-08 07:30 44.54760 8.35431 34020 ft 427 kts 189°
2026-05-08 07:30 44.49102 8.34335 34022 ft 427 kts 189°
2026-05-08 07:31 44.43225 8.33190 34019 ft 426 kts 189°
2026-05-08 07:31 44.37347 8.32052 34020 ft 426 kts 189°
2026-05-08 07:31 44.34450 8.31180 33908 ft 424 kts 198°
2026-05-08 07:32 44.31691 8.29641 32908 ft 431 kts 208°
2026-05-08 07:32 44.29331 8.27493 31900 ft 438 kts 219°
2026-05-08 07:32 44.27130 8.24533 31069 ft 440 kts 229°
2026-05-08 07:32 44.25312 8.21119 30498 ft 439 kts 235°
2026-05-08 07:33 44.23573 8.17614 29867 ft 440 kts 235°
2026-05-08 07:33 44.21821 8.14110 29118 ft 441 kts 235°
2026-05-08 07:33 44.20056 8.10600 28368 ft 444 kts 234°
2026-05-08 07:33 44.18274 8.07055 27606 ft 448 kts 234°
2026-05-08 07:34 44.16625 8.03768 26796 ft 451 kts 235°
2026-05-08 07:34 44.14825 8.00175 25776 ft 455 kts 235°
2026-05-08 07:34 44.13003 7.96538 24633 ft 460 kts 235°
2026-05-08 07:34 44.11167 7.92865 23504 ft 464 kts 235°
2026-05-08 07:35 44.09321 7.89178 22375 ft 467 kts 235°
2026-05-08 07:35 44.07460 7.85466 21385 ft 467 kts 235°
2026-05-08 07:35 44.05639 7.81836 20370 ft 450 kts 235°
2026-05-08 07:35 44.03896 7.78370 19266 ft 442 kts 235°
2026-05-08 07:36 44.02154 7.74909 18141 ft 435 kts 235°
2026-05-08 07:36 44.00438 7.71494 17045 ft 429 kts 235°
2026-05-08 07:36 43.98740 7.68117 16581 ft 424 kts 235°
2026-05-08 07:36 43.97055 7.64770 16442 ft 425 kts 235°
2026-05-08 07:37 43.95359 7.61407 16222 ft 426 kts 235°
2026-05-08 07:37 43.93658 7.58043 16053 ft 425 kts 234°
2026-05-08 07:37 43.91950 7.54712 15834 ft 424 kts 234°
2026-05-08 07:37 43.90252 7.51380 15118 ft 418 kts 234°
2026-05-08 07:38 43.88539 7.48111 14799 ft 419 kts 230°
2026-05-08 07:38 43.86375 7.45453 14543 ft 416 kts 212°
2026-05-08 07:38 43.83780 7.43851 14318 ft 415 kts 195°
2026-05-08 07:38 43.80928 7.43399 14081 ft 414 kts 178°
2026-05-08 07:39 43.78113 7.44141 13816 ft 413 kts 160°
2026-05-08 07:39 43.75587 7.45996 13587 ft 412 kts 143°
2026-05-08 07:39 43.73351 7.48466 13333 ft 411 kts 141°
2026-05-08 07:39 43.71140 7.50960 13077 ft 409 kts 139°
2026-05-08 07:40 43.69787 7.52765 12914 ft 408 kts 133°
2026-05-08 07:40 43.68049 7.55870 12658 ft 407 kts 122°
2026-05-08 07:40 43.66735 7.59317 12406 ft 406 kts 112°
2026-05-08 07:40 43.65778 7.62973 12171 ft 404 kts 109°
2026-05-08 07:41 43.64849 7.66635 11915 ft 403 kts 109°
2026-05-08 07:41 43.63919 7.70271 11663 ft 401 kts 110°
2026-05-08 07:41 43.62983 7.73903 11404 ft 400 kts 109°
2026-05-08 07:41 43.62047 7.77515 11156 ft 399 kts 110°
2026-05-08 07:42 43.61113 7.81117 10903 ft 398 kts 110°
2026-05-08 07:42 43.60179 7.84703 10650 ft 397 kts 110°
2026-05-08 07:42 43.59247 7.88278 10403 ft 395 kts 110°
2026-05-08 07:42 43.58319 7.91845 10145 ft 393 kts 110°
2026-05-08 07:43 43.57402 7.95377 9917 ft 379 kts 110°
2026-05-08 07:43 43.56419 7.98511 9783 ft 336 kts 121°
2026-05-08 07:43 43.55084 8.00894 9655 ft 303 kts 135°
2026-05-08 07:43 43.53475 8.02645 9530 ft 291 kts 149°
2026-05-08 07:44 43.51643 8.03803 9407 ft 290 kts 163°
2026-05-08 07:44 43.49668 8.04325 9281 ft 289 kts 176°
2026-05-08 07:44 43.47654 8.04197 9158 ft 290 kts 189°
2026-05-08 07:44 43.45722 8.03419 9039 ft 290 kts 203°
2026-05-08 07:45 43.43982 8.02045 8912 ft 289 kts 217°
2026-05-08 07:45 43.42453 8.00242 8787 ft 289 kts 221°
2026-05-08 07:45 43.40941 7.98412 8661 ft 289 kts 221°
2026-05-08 07:45 43.39504 7.96498 8524 ft 288 kts 233°
2026-05-08 07:46 43.38597 7.94052 8404 ft 287 kts 255°
2026-05-08 07:46 43.38416 7.91374 8282 ft 287 kts 276°
2026-05-08 07:46 43.38964 7.88761 8156 ft 286 kts 297°
2026-05-08 07:46 43.39940 7.86377 8031 ft 286 kts 300°
2026-05-08 07:47 43.40927 7.84005 7916 ft 286 kts 300°
2026-05-08 07:47 43.41911 7.81635 7776 ft 285 kts 300°
2026-05-08 07:47 43.42889 7.79261 7660 ft 285 kts 300°
2026-05-08 07:47 43.43859 7.76894 7533 ft 284 kts 300°
2026-05-08 07:48 43.44827 7.74529 7409 ft 283 kts 300°
2026-05-08 07:48 43.45795 7.72165 7283 ft 283 kts 300°
2026-05-08 07:48 43.46704 7.69767 7154 ft 282 kts 290°
2026-05-08 07:48 43.47070 7.67131 7028 ft 281 kts 270°
2026-05-08 07:49 43.46749 7.64492 6902 ft 280 kts 249°
2026-05-08 07:49 43.45788 7.62171 6774 ft 280 kts 229°
2026-05-08 07:49 43.44342 7.60400 6659 ft 279 kts 217°
2026-05-08 07:49 43.42849 7.58699 6526 ft 279 kts 221°
2026-05-08 07:50 43.41437 7.56877 6401 ft 278 kts 224°
2026-05-08 07:50 43.40119 7.54971 6276 ft 278 kts 227°
2026-05-08 07:50 43.38862 7.52959 6156 ft 277 kts 231°
2026-05-08 07:50 43.37688 7.50860 6029 ft 277 kts 234°
2026-05-08 07:51 43.36604 7.48676 5912 ft 276 kts 237°
2026-05-08 07:51 43.35616 7.46418 5779 ft 276 kts 240°
2026-05-08 07:51 43.34716 7.44089 5654 ft 275 kts 243°
2026-05-08 07:51 43.33905 7.41712 5529 ft 275 kts 246°
2026-05-08 07:52 43.33186 7.39282 5394 ft 274 kts 249°
2026-05-08 07:52 43.32567 7.36803 5274 ft 273 kts 253°
2026-05-08 07:52 43.32056 7.34295 5148 ft 273 kts 256°
2026-05-08 07:52 43.31649 7.31748 5023 ft 272 kts 259°
2026-05-08 07:53 43.31341 7.29180 4896 ft 272 kts 262°
2026-05-08 07:53 43.31134 7.26605 4773 ft 271 kts 265°
2026-05-08 07:53 43.31027 7.24024 4647 ft 270 kts 269°
2026-05-08 07:53 43.31018 7.21444 4522 ft 270 kts 271°
2026-05-08 07:54 43.31104 7.18874 4396 ft 269 kts 274°
2026-05-08 07:54 43.31289 7.16320 4264 ft 268 kts 278°
2026-05-08 07:54 43.31577 7.13789 4148 ft 268 kts 281°
2026-05-08 07:54 43.31958 7.11318 4030 ft 267 kts 284°
2026-05-08 07:55 43.32437 7.08847 4030 ft 267 kts 287°
2026-05-08 07:55 43.33000 7.06419 4032 ft 267 kts 290°
2026-05-08 07:55 43.33658 7.04032 4033 ft 267 kts 293°
2026-05-08 07:55 43.34411 7.01698 4034 ft 267 kts 296°
2026-05-08 07:56 43.35254 6.99427 4033 ft 267 kts 299°
2026-05-08 07:56 43.36179 6.97238 4026 ft 259 kts 302°
2026-05-08 07:56 43.37125 6.95225 4027 ft 243 kts 304°
2026-05-08 07:56 43.38073 6.93395 4030 ft 227 kts 307°
2026-05-08 07:57 43.39015 6.91743 4042 ft 216 kts 310°
2026-05-08 07:57 43.40145 6.90438 4030 ft 213 kts 334°
2026-05-08 07:57 43.41567 6.89955 4033 ft 212 kts
2026-05-08 07:57 43.42995 6.90393 4032 ft 212 kts 27°
2026-05-08 07:58 43.44147 6.91640 4038 ft 212 kts 45°
2026-05-08 07:58 43.45194 6.93070 4032 ft 212 kts 45°
2026-05-08 07:58 43.46242 6.94501 4032 ft 212 kts 45°
2026-05-08 07:58 43.47278 6.95912 4033 ft 212 kts 45°
2026-05-08 07:59 43.48320 6.97331 4034 ft 204 kts 45°
2026-05-08 07:59 43.49276 6.98634 4043 ft 182 kts 44°
2026-05-08 07:59 43.50130 6.99798 4006 ft 165 kts 44°
2026-05-08 07:59 43.50933 7.00894 3874 ft 160 kts 44°
2026-05-08 08:00 43.51720 7.01968 3693 ft 158 kts 44°
2026-05-08 08:00 43.52498 7.03031 3502 ft 157 kts 44°
2026-05-08 08:00 43.53272 7.04088 3291 ft 156 kts 44°
2026-05-08 08:00 43.54042 7.05141 3086 ft 156 kts 44°
2026-05-08 08:01 43.54811 7.06191 2877 ft 155 kts 44°
2026-05-08 08:01 43.55575 7.07236 2677 ft 155 kts 44°
2026-05-08 08:01 43.56339 7.08280 2466 ft 154 kts 44°
2026-05-08 08:01 43.57091 7.09308 2269 ft 154 kts 44°
2026-05-08 08:02 43.57844 7.10338 2075 ft 149 kts 44°
2026-05-08 08:02 43.58565 7.11326 1864 ft 144 kts 44°
2026-05-08 08:02 43.59268 7.12288 1679 ft 141 kts 44°
2026-05-08 08:02 43.59963 7.13242 1485 ft 141 kts 44°
2026-05-08 08:03 43.60656 7.14192 1303 ft 140 kts 44°
2026-05-08 08:03 43.61347 7.15139 1117 ft 140 kts 44°
2026-05-08 08:03 43.62034 7.16082 935 ft 139 kts 43°
2026-05-08 08:03 43.62721 7.17026 743 ft 139 kts 44°
2026-05-08 08:04 43.63400 7.17970 564 ft 139 kts 44°
2026-05-08 08:04 43.64089 7.18905 398 ft 138 kts 43°
2026-05-08 08:04 43.64769 7.19839 211 ft 138 kts 43°
2026-05-08 08:04 43.65428 7.20742 28 ft 134 kts 44°
2026-05-08 08:05 43.65977 7.21495 26 ft 73 kts 45°
2026-05-08 08:05 43.66153 7.21735 25 ft 15 kts 38°
2026-05-08 08:05 43.66241 7.21714 23 ft 12 kts 320°
2026-05-08 08:05 43.66291 7.21648 22 ft 11 kts 317°
2026-05-08 08:06 43.66345 7.21573 23 ft 11 kts 311°
2026-05-08 08:06 43.66364 7.21478 22 ft 11 kts 258°
2026-05-08 08:06 43.66346 7.21369 21 ft 12 kts 261°
2026-05-08 08:06 43.66332 7.21247 20 ft 13 kts 260°
2026-05-08 08:07 43.66318 7.21129 21 ft 12 kts 260°
2026-05-08 08:07 43.66322 7.21041 24 ft 6 kts 311°
2026-05-08 08:07 43.66357 7.21022 23 ft 4 kts 347°
2026-05-08 08:07 43.66380 7.21019 22 ft 3 kts 359°
2026-05-08 08:08 43.66384 7.21019 23 ft 0 kts 359°